Location: Griffin Ranch
(33.6186°N, 110.6622°W)
Time: 21:54:40
(UTC-07:00)

Daily predictions for brighter satellites

Satellite Brightness Start Highest point End
(mag) Time Altitude Azimuth Time Altitude Azimuth Time Altitude Azimuth
Cosmos 1464 Rocket 4.1 18:21:13 10° S 18:27:19 59° E 18:33:22 10° NNE
Cosmos 2034 Rocket 4.4 18:21:49 10° SSE 18:27:37 42° E 18:33:30 10° NNE
SL-16 R/B 3.2 18:22:24 10° SW 18:27:55 53° WNW 18:33:30 10° N
Cosmos 1766 3.3 18:25:46 10° S 18:29:43 89° E 18:33:43 10° N
SKYMED 2 3.6 18:25:35 10° NNE 18:29:56 90° NNW 18:34:17 10° SSW
Cosmos 1624 Rocket 4.4 18:27:50 10° NNW 18:33:01 69° WSW 18:38:09 10° S
Cosmos 1437 3.9 18:33:13 10° NNW 18:36:24 50° W 18:39:34 10° S
IDEFIX/ARIANE 42P 3.7 18:35:46 10° S 18:40:48 49° W 18:45:53 10° NNW
Meteor 1-28 Rocket 3.2 18:41:30 10° NNE 18:45:10 56° E 18:48:48 10° S
Meteor 1-29 4.3 18:42:58 10° NE 18:45:37 20° E 18:48:14 10° SE
GPS 2-04 Rocket1 2.3 18:43:04 10° W 18:46:30 82° NNW 18:49:38 13° ENE
Timation 1 Rocket 4.4 18:41:30 10° NNW 18:47:30 88° ENE 18:53:28 10° SSE
Atlas Centaur 2 4.2 18:41:06 10° W 18:48:48 39° SSW 18:56:24 10° SE
SAR-Lupe-1 4.1 18:47:02 10° SSE 18:50:29 53° ENE 18:53:58 10° N
SEDSat Delta rocket 4.2 18:47:32 10° W 18:53:58 71° S 18:59:50 14° ESE
Cosmos 1805 3.2 18:51:20 10° S 18:55:14 77° E 18:59:11 10° N
NOAA 12 4.1 18:50:39 10° SSE 18:55:48 60° ENE 19:01:00 10° N
Elektron 1 3.7 18:56:09 10° SSW 18:59:17 59° ESE 19:02:13 10° NE
ASTEX 1 4.3 18:55:27 10° NE 18:59:27 25° E 19:03:26 10° SE
Cosmos 1743 Rocket 4.2 18:55:35 10° NNE 18:59:36 34° E 19:03:34 10° SE
ALOS 3.5 18:58:47 15° ESE 19:01:13 22° ENE 19:04:46 10° NNE
Cosmos 1452 Rocket 3.4 18:57:30 10° NNW 19:02:46 81° ENE 19:08:00 10° SSE
Resurs 01 Rocket 2.0 19:01:08 10° SE 19:05:20 42° ENE 19:09:32 10° N
ISS -1.6 19:04:03 10° WSW 19:07:00 31° NW 19:09:57 10° NNE
Cosmos 1943 3.4 19:02:59 10° S 19:08:22 48° ESE 19:13:45 10° NNE
Helios 1B rocket 2.4 19:04:20 10° NNE 19:08:24 57° E 19:12:26 10° S
Cosmos 1953 2.7 19:05:21 10° SSW 19:09:17 66° W 19:13:15 10° N
Cosmos 2369 Rocket 3.2 19:06:12 10° N 19:10:52 25° ENE 19:12:52 21° E
Cosmos 1733 3.8 19:09:50 10° SSE 19:13:21 34° E 19:16:52 10° NNE
Gbstr 26 Del rocket 3.3 19:09:35 10° SW 19:13:46 74° NW 19:18:53 10° NE
Cosmos 1603 4.4 19:10:05 10° SW 19:15:42 58° WNW 19:21:24 10° NNE
BREEZE-M DEB (TANK) 3.6 19:13:32 10° WNW 19:16:01 37° SW 19:22:05 10° SSE
CENTAUR R/B 2.3 19:10:16 10° SSW 19:16:07 73° ESE 19:22:40 10° NE
Cosmos 1470 2.7 19:17:01 10° S 19:20:49 56° E 19:24:37 10° NNE
Cosmos 1420 Rocket 4.0 19:16:35 10° N 19:21:53 66° ENE 19:27:09 10° SSE
Cosmos 1674 2.9 19:21:24 10° N 19:25:10 47° E 19:26:28 32° SE
Delta 168 4.4 19:23:25 10° WSW 19:27:17 32° S 19:29:39 23° SE
ASTRO E2 3.8 19:26:57 10° W 19:30:40 35° SSW 19:32:03 27° SSE
Spot 2 Rocket 3.4 19:26:45 10° SSE 19:31:47 88° ENE 19:36:51 10° NNW
GP-B 4.2 19:27:53 10° NNE 19:30:26 26° NE 19:30:26 26° NE
Nadezhda 4 Rocket 3.9 19:28:33 10° N 19:34:49 85° E 19:41:00 10° S
HJ-1C 3.6 19:32:10 10° S 19:35:25 68° W 19:38:46 10° NNW
FREGAT/IRIS 4.4 19:33:10 10° SSW 19:36:02 34° W 19:38:53 10° NNW
SJ-6B 4.5 19:33:23 10° SSW 19:37:02 35° W 19:40:47 10° NNW
Cosmos 2151 4.4 19:36:09 10° NNE 19:38:14 24° NE 19:38:14 24° NE
Cosmos 1346 4.2 19:37:18 10° NNW 19:40:09 43° W 19:42:03 18° SSW
Cosmos 1092 Rocket 3.8 19:38:44 10° N 19:44:55 73° E 19:51:02 10° SSE
Cosmos 158 Rocket 3.9 19:43:05 10° SSW 19:47:57 77° WNW 19:52:50 10° NNE
Cosmos 2142 Rocket 4.4 19:43:24 10° S 19:49:43 71° E 19:56:05 10° N
Meteor 1-16 Rocket 4.0 19:45:58 10° S 19:51:09 59° E 19:56:22 10° NNE
FengYun 1-2 T 4.3 19:48:31 10° S 19:54:01 76° WSW 19:59:32 10° NNW
Cosmos 1655 Rocket 4.3 19:49:41 10° N 19:55:09 42° ENE 19:55:09 42° ENE
Cosmos 2026 Rocket 4.1 19:49:55 10° N 19:55:48 48° E 19:55:58 47° E
Cosmos 1634 Rocket 3.9 19:50:24 10° S 19:56:39 86° E 20:02:53 10° N
OAO 3 Rocket 3.2 19:57:38 10° W 20:02:22 69° SSW 20:02:28 69° S
USA 215 3.8 19:57:39 10° NE 20:04:01 57° NW 20:10:23 10° WSW
OAO 1 Rocket 4.3 20:00:27 10° W 20:05:51 89° SSW 20:06:10 80° ESE
Cosmos 1500 Rocket 4.3 20:03:29 10° NNW 20:07:48 51° W 20:10:06 25° SSW
Meteor 1-11 4.5 20:02:44 10° N 20:07:35 52° NE 20:07:35 52° NE
SeaSat 1 4.5 20:12:56 16° SSW 20:12:56 16° SSW 20:13:52 10° SSW
FENGYUN 3A 4.0 20:13:59 31° S 20:16:31 63° WSW 20:21:52 10° NNW
Cosmos 2195 Rocket 4.4 20:11:47 10° N 20:18:10 86° E 20:19:29 59° S
ALOS 4.0 20:37:20 27° WSW 20:38:26 30° W 20:42:32 10° NW
Cosmos 1943 Rocket 3.5 20:41:26 10° NNW 20:44:16 31° N 20:44:16 31° N
Cosmos 2369 Rocket 3.4 20:49:44 10° NW 20:54:43 37° W 20:54:43 37° W
